World > North America > United States > Wyoming > Keeline

Keeline, WY Hourly Weather Conditions

Feedback E-mail the Weather

Quick WX

Keeline, WY Weather Maps

°F °C°F °C
Keeline Weather Map
UTC Time: 1/28/2023, 20:33
Your Time:

Keeline, WY Regional Weather

Expires:202301282100;;399484
ASUS45 KCYS 282010
RWRWY 

WYOMING REGIONAL WEATHER ROUNDUP
NATIONAL WEATHER SERVICE CHEYENNE WY
100 PM MST SAT JAN 28 2023

NOTE:  "FAIR" INDICATES FEW OR NO CLOUDS BELOW 12,000 FEET
WITH NO SIGNIFICANT WEATHER AND/OR OBSTRUCTIONS TO VISIBILITY.


WYZ014>020-022>026-101>103-282100-
...CENTRAL WYOMING...
  
CITY           SKY/WX    TMP DP  RH WIND       PRES   REMARKS
BIG PINEY      SUNNY     17  12  80 E6        29.73F WCI   9          
PINEDALE       LGT SNOW  21  19  93 CALM      29.74S                  
DUBOIS         LGT SNOW  14   9  79 E9G17     29.73S WCI   2          
LANDER         SNOW      15  13  91 E6        29.88R VSB 1/4 WCI   6  
RIVERTON       SNOW      12   8  84 N22G29    29.87R VSB 1/2 WCI  -7  
CASPER         SNOW       9   5  84 N31G43    29.86F VSB 1/4 WCI -14  
DOUGLAS        SNOW      14  10  84 E22       29.89S VSB 1/2 WCI  -4  

$$

SKY/WX - Weather  TMP - Temperature  DP - Dew Point  RH - Humidity
WIND - Wind Direction/Speed PRES - Barometric Pressure VSB - Visibility
WCI - Wind Chill Index E13G22 Wind - East Wind 13 mph/Gusts of 22 mph

Trending Headlines

Trending Entertainment Headlines

Keeline Radar Loop

Use the map search tool if you want to place a location marker on the radar map...

Keeline Quick Facts

National Two Day Weather Forecast


E-mail the Keeline Weather Forecast

Voice your opinion or tell us about page issues...